Temp_Advection
nan nan nan nan nan nan nan nan nan nan nan nan nan nan nan nan nan nan nan nan nan nan nan nan nan nan nan nan nan nan nan nan nan nan nan nan nan nan nan nan nan nan nan
nan 0 1 1 1 0 0 0 0 0 0 -0 -0 -0 0 0 0 -0 -0 -0 0 0 -1 -0 0 1 1 0 0 0 0 -0 -0 -0 0 0 -0 -1 0 0 1 0 nan
nan 1 1 1 1 1 0 0 0 -0 0 0 0 1 1 -1 -2 -1 -0 1 1 0 0 1 1 1 0 0 -0 0 -0 -0 -0 -0 -0 -0 -1 0 1 0 1 1 nan
nan 1 1 1 1 0 -0 -0 -0 -1 -0 0 0 1 -0 -1 -1 -0 0 1 1 1 1 1 0 1 0 -0 0 1 1 0 0 -0 -0 -0 0 0 0 0 0 1 nan
nan 1 1 1 -0 -0 -0 -0 -0 0 1 1 0 0 0 0 1 1 0 -1 -1 2 2 -1 -1 1 1 1 1 1 1 0 -0 -1 1 1 0 -0 0 0 0 0 nan
nan 0 0 0 0 0 0 0 0 1 0 0 1 1 0 0 1 0 0 1 -0 -2 -0 1 1 0 2 2 1 1 0 0 1 0 -0 0 0 1 1 1 1 1 nan
nan -0 -0 -0 0 0 0 0 0 0 -0 -0 0 0 1 1 0 0 0 0 0 -0 -2 -1 1 2 2 0 0 1 0 0 1 0 1 0 0 1 0 1 2 1 nan
nan -0 -0 0 0 0 0 0 0 -0 -0 -0 0 -0 -0 0 1 1 0 0 -0 -0 1 1 0 1 0 -0 0 1 1 1 1 1 1 -0 0 2 1 1 2 2 nan
nan -0 -0 -0 0 -0 -0 -0 -0 -0 -0 -0 0 0 0 0 0 1 0 0 1 -0 -0 0 0 -0 -0 0 0 1 1 0 1 1 -0 0 1 2 2 2 1 1 nan
nan -0 -0 -0 -0 -0 -0 -0 -0 -0 -0 -0 -0 0 0 0 0 -0 1 1 -0 -0 0 0 0 0 0 0 1 0 0 1 0 -0 1 1 2 2 1 2 1 1 nan
nan 0 0 -0 -0 -0 -0 -0 -0 -0 -0 -0 -0 -0 -0 0 0 1 1 -0 -1 -0 0 1 0 0 0 0 0 0 0 1 0 0 1 1 3 2 0 1 1 -0 nan
nan 0 0 0 -0 -0 -0 -0 -0 -0 -0 -0 -0 -0 -0 -0 0 0 0 0 -0 0 1 1 0 0 0 0 0 0 -0 0 1 1 2 2 1 1 1 0 -0 -0 nan
nan 0 0 0 -0 -0 -0 -0 -0 -0 -0 -0 -0 -0 -0 -0 -0 0 0 1 0 0 0 0 0 0 -0 -0 -0 0 1 1 1 1 1 1 1 0 0 0 0 0 nan
nan 0 0 0 -0 -0 -0 -0 -0 -0 -0 -0 -0 -0 -0 -0 -0 -0 -0 0 0 0 0 -0 -0 -0 0 0 0 1 1 1 1 1 1 0 0 0 0 0 0 0 nan
nan 0 0 0 0 0 -0 -0 -0 -0 0 -0 0 0 0 0 0 0 0 0 0 0 0 0 0 -0 0 0 0 1 1 0 0 0 0 0 0 0 0 0 0 0 nan
nan 0 0 0 0 0 -0 -0 -0 0 0 -0 -0 -0 -0 0 0 0 0 0 0 -0 -0 0 0 -0 -0 -0 -0 0 0 0 0 0 0 0 0 0 -0 -0 0 0 nan
nan 1 0 0 0 -0 0 0 0 0 -0 -0 0 -0 0 0 0 0 -0 -0 -0 -0 -0 -0 0 0 -0 -0 -0 0 -0 0 0 0 0 -0 -0 -0 0 0 0 0 nan
nan 0 0 -0 0 0 0 0 0 -0 -0 -0 -0 -0 0 0 0 -0 -0 -0 -0 0 0 0 0 -0 -0 0 -0 -0 0 -0 -0 -0 -0 0 0 -0 -0 0 0 0 nan
nan 0 -0 0 0 0 0 0 0 0 0 0 -0 -0 0 0 0 -0 -0 -0 0 0 0 0 0 0 -0 -0 0 0 -0 -0 -0 -0 -0 -0 -0 -0 -0 -0 0 0 nan
nan 0 0 0 0 0 -0 0 0 0 0 0 -0 0 0 0 0 -0 -0 -0 0 0 -0 -0 -0 0 0 0 -0 0 0 -0 -0 -0 -0 -0 -0 -0 -0 -0 -0 0 nan
nan 0 0 0 0 0 -0 -0 0 0 0 0 0 0 0 0 0 0 0 0 0 0 0 0 0 -0 -0 0 0 -0 -0 -0 -0 -0 -0 -0 -0 -0 0 0 0 -0 nan
nan 0 0 0 0 0 0 0 0 0 0 0 0 0 0 0 0 0 0 0 0 0 0 0 0 0 0 -0 -0 -0 -0 0 -0 -0 -0 -0 -0 -0 -0 -0 -0 -0 nan
nan 0 0 0 0 0 0 0 0 0 0 0 0 0 0 0 0 0 0 0 0 0 0 -0 -0 -0 -0 -0 -0 -0 -0 -0 -0 -0 -0 -0 -0 -0 -0 -0 -0 -0 nan
nan 0 0 0 -0 0 0 0 0 0 0 0 -0 -0 -0 -0 -0 -0 0 -0 -0 0 0 -0 -0 -0 -0 0 -0 -0 -0 -0 -0 -0 -0 -0 -0 -0 -0 -0 -0 -0 nan
nan 0 -0 0 -0 0 0 -0 -0 -0 -0 -0 -0 -0 -0 -0 -0 -1 -0 -0 -0 -0 -0 -0 0 0 0 0 0 0 0 0 0 0 0 -0 -0 -0 -0 -0 -0 -0 nan
nan nan nan nan nan nan nan nan nan nan nan nan nan nan nan nan nan nan nan nan nan nan nan nan nan nan nan nan nan nan nan nan nan nan nan nan nan nan nan nan nan nan nan
Wind_Speed
25 22 21 20 19 18 18 19 19 21 21 25 25 27 27 27 21 21 21 21 20 21 23 24 23 24 26 26 22 22 23 23 19 17 19 19 21 22 21 20 21 20 20
20 19 18 19 20 20 20 21 21 22 22 21 26 26 27 30 30 30 29 26 26 26 27 28 26 26 27 26 25 25 26 26 26 25 16 9 18 25 26 24 23 22 22
21 20 18 17 18 18 19 20 23 24 24 22 23 24 18 24 29 33 35 36 34 33 32 31 31 30 28 31 31 32 30 31 30 31 19 9 12 14 18 26 27 23 24
21 18 17 17 15 16 19 20 19 23 25 27 25 23 25 31 33 33 35 36 38 36 37 35 35 34 32 34 35 35 35 35 35 32 35 27 16 11 9 17 23 25 24
13 11 9 13 19 21 23 26 27 27 28 28 29 26 28 27 28 29 26 32 36 35 34 35 37 38 37 37 37 36 38 39 36 39 36 38 37 30 22 13 18 22 25
9 8 7 6 5 6 9 14 19 24 27 28 31 31 27 26 27 30 31 28 30 36 37 35 36 36 38 38 40 39 40 41 38 40 39 40 39 43 42 35 24 22 22
11 9 8 7 6 5 4 3 4 7 14 21 27 28 30 28 26 25 26 26 28 30 36 39 37 36 35 35 38 40 40 43 41 42 42 42 42 41 39 36 31 25 27
9 8 6 5 4 3 2 2 3 5 8 11 15 19 24 29 31 29 28 25 29 30 31 31 30 30 31 32 34 37 39 41 41 41 40 43 45 39 39 42 36 28 25
8 6 5 4 2 1 3 5 7 10 13 15 16 17 18 19 22 26 27 31 32 29 26 26 27 25 25 28 30 34 37 38 37 38 42 45 44 40 38 34 27 26 21
6 5 4 3 0 3 5 9 12 14 15 17 19 21 22 22 21 22 22 22 25 28 30 29 27 25 22 22 25 29 33 36 38 38 37 39 40 38 32 30 25 18 15
6 5 4 2 2 4 8 11 12 12 13 15 15 16 19 21 22 24 23 25 27 25 23 24 23 22 21 21 22 25 27 31 33 33 32 32 31 27 24 20 18 13 12
5 4 4 3 2 5 9 11 10 9 10 10 10 11 12 14 16 18 21 22 22 20 18 17 18 17 17 17 18 20 23 25 27 27 26 23 20 16 15 12 13 11 11
6 6 4 4 3 6 8 8 8 7 7 7 5 5 4 5 7 9 10 12 13 13 13 12 11 10 11 12 15 17 19 20 19 17 16 14 11 9 8 8 11 11 11
8 8 5 3 4 4 5 5 6 5 5 6 5 3 2 1 1 2 3 5 7 7 8 8 9 8 8 10 12 13 14 15 15 12 8 6 6 6 8 8 9 9 10
9 8 6 5 5 2 2 3 5 5 4 5 3 2 2 3 3 3 3 3 4 5 5 4 3 3 6 5 6 7 8 8 8 7 6 6 4 4 5 6 7 8 9
11 9 8 9 5 3 2 1 3 2 3 2 3 4 5 6 6 7 7 6 5 5 4 4 4 5 5 5 4 3 4 7 7 7 5 3 5 4 4 6 8 10 12
11 10 9 8 8 7 4 2 2 4 3 5 5 7 8 9 9 8 7 7 7 7 8 8 9 9 8 6 7 7 6 6 5 4 4 2 1 5 7 9 11 12 12
10 10 10 9 9 6 5 4 4 4 4 4 6 7 8 6 7 7 6 7 10 11 11 12 10 8 11 9 9 8 7 5 4 3 2 3 5 7 9 10 12 13 13
9 11 11 10 9 8 7 5 5 5 5 4 5 6 6 5 8 12 13 15 14 16 15 14 12 10 12 9 7 8 6 4 2 2 4 6 7 10 11 11 12 13 13
9 10 10 11 10 8 7 6 7 7 7 6 8 9 10 11 14 16 16 16 15 16 16 15 14 13 13 11 7 5 3 1 3 5 7 7 9 11 11 12 13 14 14
9 9 9 10 10 8 8 8 9 9 10 11 13 15 15 17 17 17 16 16 16 15 14 13 12 10 8 6 4 3 4 4 6 7 9 12 12 13 13 13 13 12 13
8 9 9 10 10 9 9 9 10 12 13 15 17 19 19 18 17 17 17 14 13 13 12 10 9 7 4 4 4 5 7 9 9 10 11 12 13 13 13 12 12 11 10
7 8 10 11 10 10 10 11 13 14 17 20 20 20 20 18 17 16 14 12 10 9 8 6 5 4 3 5 7 9 10 10 11 11 12 14 14 14 12 12 10 8 7
9 9 10 11 11 11 11 13 17 20 22 22 22 21 19 16 14 13 10 9 7 6 5 3 2 2 3 5 8 11 12 14 13 15 15 14 13 12 10 8 6 6 7
10 11 11 11 12 13 15 19 22 23 23 21 20 18 16 14 14 13 10 8 6 5 4 1 1 3 5 7 9 11 12 13 15 15 15 13 12 9 7 6 6 7 8
12 12 11 12 15 18 21 23 23 21 20 20 17 17 16 14 11 9 7 6 5 3 2 2 3 5 8 11 12 13 14 14 15 14 13 11 9 7 6 6 7 8 9
Wind_Direction
236 235 234 231 227 223 219 216 215 220 220 244 234 235 237 238 227 235 235 235 232 231 235 237 232 230 231 233 225 225 225 222 215 220 234 237 245 248 248 248 247 247 252
233 232 229 228 227 227 228 225 226 223 224 226 249 247 248 247 249 239 244 244 245 241 242 244 239 238 231 230 227 223 225 229 223 220 227 239 251 250 247 246 244 244 250
241 235 230 232 229 229 228 229 230 232 229 226 242 250 243 252 251 249 250 253 248 250 245 246 244 239 235 237 232 232 230 231 234 229 217 212 228 243 247 240 241 237 242
245 247 245 240 233 231 230 226 230 232 235 231 225 235 235 245 252 254 254 253 254 246 248 244 246 241 237 239 243 240 242 238 236 239 231 224 218 210 220 240 239 238 235
224 223 216 218 230 239 239 235 235 235 232 232 231 231 236 242 251 249 250 254 255 254 247 249 250 248 242 239 244 240 236 246 238 247 243 237 235 236 234 236 240 237 240
166 157 149 157 177 207 228 237 241 241 240 238 236 231 230 239 244 248 249 251 253 260 258 255 252 253 249 243 245 241 241 247 244 245 247 247 242 241 242 244 243 247 251
150 139 132 126 127 128 132 150 194 234 241 242 243 244 242 238 241 247 252 251 250 254 260 261 259 256 255 254 249 249 244 249 247 244 248 251 249 249 252 248 244 237 243
146 138 131 120 124 144 170 215 243 252 251 246 243 245 248 248 244 244 246 250 257 259 261 262 263 261 257 255 250 249 249 253 252 248 240 247 253 251 248 249 244 238 236
144 136 126 113 117 273 292 286 279 274 268 262 257 254 253 253 251 245 250 254 251 254 257 266 267 265 260 255 254 254 251 251 251 248 243 246 250 250 246 249 244 248 239
152 146 139 132 221 311 321 315 305 295 286 274 264 259 256 255 257 259 258 255 264 258 255 256 261 269 265 261 258 258 257 257 254 251 250 250 251 249 247 250 252 249 257
168 166 157 182 299 319 321 316 309 298 290 284 277 267 260 254 250 250 251 250 255 264 264 258 259 261 262 262 259 258 259 256 253 250 248 247 251 252 252 256 266 275 283
183 182 193 226 270 314 327 325 314 307 302 298 286 277 270 264 260 259 258 262 265 267 268 263 259 257 258 260 264 265 264 259 251 245 240 240 242 245 252 259 272 277 274
198 196 205 227 275 324 327 324 321 326 318 311 310 306 291 271 260 252 249 250 248 249 249 250 254 262 267 264 263 259 255 248 240 233 228 232 234 249 260 277 264 275 270
208 202 196 209 261 298 319 326 331 338 337 340 338 336 353 356 314 260 253 230 231 229 238 235 244 241 244 247 253 248 231 217 208 199 194 200 219 244 260 265 263 260 267
210 204 197 200 242 259 304 330 342 350 10 14 1 29 79 93 108 126 144 161 190 197 208 221 246 275 277 254 241 218 203 180 172 165 184 206 213 243 246 256 260 266 277
204 200 196 218 197 210 232 309 7 23 57 34 103 111 116 115 111 111 108 107 109 97 94 105 111 104 90 84 105 136 141 164 177 171 185 196 215 241 282 277 285 289 292
188 192 194 202 205 195 183 151 113 72 74 84 104 116 116 119 114 103 92 86 89 101 106 110 117 116 116 114 124 138 145 166 141 161 185 140 303 295 291 294 295 296 298
183 184 183 193 197 180 168 165 146 115 84 93 106 113 118 110 96 86 88 103 106 109 114 116 109 109 108 111 112 120 135 135 91 67 22 318 296 296 301 303 305 308 305
174 180 197 195 193 180 168 172 169 155 135 120 127 128 128 122 121 122 119 111 118 116 117 113 113 119 117 112 118 102 91 84 57 323 304 308 312 309 309 305 304 307 301
196 199 196 189 190 189 164 170 176 177 164 157 141 138 132 133 128 119 115 118 122 118 116 114 112 113 118 121 118 109 92 31 345 335 319 314 317 321 318 313 305 301 300
194 193 193 197 195 199 185 185 185 179 169 159 149 136 132 129 123 121 122 124 123 120 117 118 114 112 104 96 85 53 28 351 327 323 320 322 324 314 306 303 302 301 302
200 204 211 207 201 198 198 191 183 175 167 155 144 133 131 128 125 124 125 127 126 126 125 122 115 111 97 52 30 9 351 342 333 323 316 313 314 313 313 312 310 307 303
197 206 205 202 199 195 192 190 181 167 154 146 142 140 137 135 134 133 131 131 128 124 120 117 106 84 42 6 350 343 332 331 327 323 323 321 319 316 314 310 306 304 307
190 186 184 190 194 189 183 177 159 151 151 149 148 144 141 138 139 138 138 137 136 135 126 113 94 25 351 337 333 335 337 333 332 325 324 321 315 311 309 304 303 304 306
189 186 188 190 193 184 169 160 153 153 154 152 148 150 148 148 147 148 150 159 153 151 155 175 291 324 322 322 320 319 317 316 315 318 318 321 318 313 305 303 299 300 303
193 187 186 187 188 177 169 161 158 161 162 158 160 159 158 158 159 162 164 162 162 170 193 280 309 313 315 314 316 316 318 317 317 319 317 314 310 303 294 290 292 299 307
Height
1474 1477 1480 1483 1485 1488 1490 1493 1496 1498 1502 1499 1501 1503 1506 1510 1514 1515 1517 1517 1520 1521 1522 1522 1524 1526 1527 1529 1531 1532 1534 1535 1538 1539 1540 1539 1540 1540 1540 1541 1541 1541 1541
1470 1472 1475 1478 1481 1483 1485 1487 1490 1493 1497 1498 1496 1499 1501 1504 1507 1509 1510 1512 1514 1516 1517 1517 1519 1520 1523 1525 1527 1527 1528 1529 1532 1533 1536 1537 1537 1534 1534 1535 1536 1536 1536
1465 1468 1471 1474 1476 1477 1479 1482 1484 1487 1490 1493 1494 1494 1496 1497 1499 1501 1503 1505 1507 1508 1510 1511 1513 1515 1516 1518 1521 1521 1521 1522 1524 1527 1531 1531 1529 1528 1528 1529 1530 1531 1530
1463 1465 1467 1469 1471 1471 1473 1476 1479 1481 1483 1486 1490 1491 1491 1491 1492 1495 1496 1498 1499 1502 1503 1504 1506 1509 1510 1510 1512 1515 1515 1516 1517 1520 1522 1523 1523 1524 1525 1524 1524 1525 1526
1460 1462 1463 1462 1462 1464 1466 1468 1471 1474 1477 1479 1482 1485 1487 1487 1488 1490 1492 1492 1492 1494 1497 1498 1499 1500 1503 1504 1505 1508 1509 1509 1512 1511 1514 1516 1518 1519 1519 1518 1518 1519 1520
1459 1460 1460 1460 1460 1461 1462 1463 1466 1468 1471 1473 1475 1477 1480 1483 1484 1484 1486 1487 1488 1487 1489 1491 1492 1494 1495 1497 1498 1502 1503 1503 1504 1505 1507 1507 1508 1508 1510 1512 1511 1514 1513
1458 1459 1461 1462 1460 1461 1462 1462 1463 1465 1466 1467 1470 1471 1473 1475 1478 1480 1480 1481 1482 1482 1482 1483 1484 1486 1488 1490 1492 1493 1495 1496 1497 1499 1499 1500 1501 1502 1503 1504 1504 1504 1505
1457 1459 1460 1461 1460 1460 1461 1462 1463 1463 1464 1464 1465 1466 1467 1468 1470 1473 1474 1476 1475 1476 1476 1477 1477 1479 1481 1483 1485 1485 1486 1487 1489 1491 1493 1492 1493 1496 1496 1496 1495 1496 1497
1456 1458 1460 1460 1460 1460 1460 1461 1461 1461 1461 1461 1460 1461 1462 1462 1464 1465 1467 1467 1469 1470 1471 1471 1471 1473 1475 1476 1477 1478 1479 1480 1481 1482 1483 1483 1485 1487 1487 1487 1481 1487 1491
1455 1457 1459 1460 1460 1460 1458 1458 1457 1456 1456 1456 1456 1456 1457 1458 1458 1459 1460 1462 1462 1462 1464 1466 1466 1468 1469 1470 1471 1472 1472 1472 1473 1474 1476 1477 1478 1477 1480 1479 1479 1484 1488
1455 1457 1458 1459 1458 1457 1457 1456 1454 1453 1452 1450 1451 1451 1451 1451 1452 1453 1454 1454 1455 1457 1458 1459 1461 1462 1464 1464 1466 1466 1467 1468 1469 1470 1470 1471 1471 1473 1472 1477 1484 1475 1475
1454 1455 1457 1456 1457 1456 1455 1453 1452 1451 1449 1448 1447 1446 1446 1446 1447 1448 1450 1451 1452 1453 1454 1455 1456 1457 1458 1459 1461 1462 1463 1463 1463 1464 1465 1467 1469 1470 1474 1476 1477 1477 1473
1453 1454 1455 1455 1454 1453 1453 1452 1451 1449 1447 1446 1445 1444 1443 1443 1443 1444 1445 1446 1447 1448 1449 1451 1452 1453 1454 1456 1457 1459 1458 1459 1461 1462 1464 1466 1467 1470 1472 1472 1476 1474 1475
1450 1452 1452 1453 1451 1451 1452 1451 1449 1447 1445 1444 1443 1443 1443 1442 1443 1443 1444 1445 1445 1446 1448 1448 1449 1450 1451 1452 1454 1455 1456 1457 1459 1462 1465 1467 1468 1470 1472 1472 1473 1473 1475
1447 1449 1450 1450 1450 1451 1451 1449 1447 1446 1445 1444 1444 1444 1443 1444 1444 1443 1443 1444 1445 1446 1447 1448 1450 1450 1451 1452 1454 1456 1458 1460 1462 1464 1467 1468 1468 1468 1471 1471 1472 1472 1473
1444 1447 1447 1448 1449 1450 1449 1448 1447 1447 1446 1445 1444 1444 1444 1444 1445 1445 1444 1445 1446 1447 1448 1449 1449 1450 1452 1454 1455 1459 1460 1463 1463 1463 1467 1463 1468 1468 1470 1471 1471 1471 1470
1443 1445 1446 1446 1447 1448 1448 1448 1448 1447 1446 1445 1445 1445 1446 1446 1447 1447 1447 1447 1448 1450 1451 1452 1452 1452 1453 1456 1457 1459 1460 1460 1461 1465 1466 1466 1469 1468 1469 1469 1469 1468 1467
1442 1443 1444 1444 1446 1446 1447 1448 1447 1447 1446 1446 1446 1447 1447 1449 1448 1449 1449 1449 1450 1451 1452 1453 1455 1456 1457 1460 1461 1463 1465 1466 1466 1467 1466 1466 1466 1467 1466 1466 1465 1465 1465
1441 1441 1441 1442 1444 1445 1446 1447 1447 1447 1447 1447 1447 1448 1449 1449 1450 1450 1452 1452 1454 1453 1455 1456 1458 1460 1461 1463 1465 1465 1466 1466 1466 1466 1466 1466 1466 1465 1464 1464 1463 1463 1462
1437 1438 1439 1441 1442 1444 1445 1446 1446 1446 1446 1447 1448 1449 1449 1450 1452 1452 1453 1455 1458 1457 1458 1459 1461 1463 1464 1465 1466 1467 1467 1466 1466 1466 1465 1465 1465 1463 1462 1461 1460 1460 1459
1435 1436 1437 1439 1441 1442 1443 1444 1445 1445 1446 1448 1449 1450 1451 1452 1454 1455 1457 1459 1461 1461 1462 1463 1464 1466 1466 1467 1467 1467 1467 1467 1466 1465 1464 1463 1462 1461 1460 1459 1458 1457 1456
1434 1435 1436 1438 1440 1441 1442 1442 1444 1445 1447 1448 1450 1452 1454 1455 1456 1458 1460 1462 1464 1464 1464 1465 1466 1467 1467 1467 1467 1467 1467 1465 1464 1463 1463 1461 1460 1459 1457 1456 1454 1453 1452
1433 1434 1436 1438 1439 1440 1441 1442 1443 1445 1448 1450 1452 1454 1455 1458 1459 1461 1463 1465 1466 1466 1466 1467 1467 1467 1467 1467 1466 1466 1465 1464 1463 1461 1460 1458 1457 1455 1454 1452 1452 1451 1450
1433 1435 1436 1437 1438 1439 1440 1442 1444 1447 1449 1451 1454 1456 1458 1460 1462 1463 1465 1466 1466 1466 1467 1467 1468 1467 1467 1467 1466 1464 1463 1461 1460 1459 1457 1456 1454 1453 1452 1450 1450 1449 1448
1432 1434 1435 1436 1437 1439 1441 1443 1446 1448 1451 1453 1455 1457 1459 1461 1462 1463 1465 1465 1466 1466 1467 1468 1468 1467 1466 1466 1465 1464 1462 1461 1459 1457 1455 1453 1452 1450 1449 1448 1448 1447 1446
1430 1432 1434 1435 1437 1439 1442 1444 1447 1449 1451 1453 1455 1457 1459 1461 1462 1463 1464 1465 1466 1467 1468 1468 1467 1466 1465 1464 1463 1461 1460 1458 1456 1454 1452 1451 1450 1449 1448 1447 1446 1445 1444